Location: Edinburgh
(55.9500°N, 3.1600°W)
Time: 05:08:09
(UTC+01:00)

ISS - Pass Details

Date: 13 October 2017
Orbit: 401 x 408 km, 51.6° (Epoch: 23 October)

Event Time Altitude Azimuth Distance (km) Brightness Sun altitude
Rises 19:02:45 0° 272° (W) 2,326 2.5 -7.2°
Reaches altitude 10° 19:05:14 10° 254° (WSW) 1,465 0.6 -7.6°
Maximum altitude 19:07:36 19° 207° (SSW) 1,056 -1.3 -7.9°
Drops below altitude 10° 19:09:58 10° 161° (SSE) 1,464 -1.2 -8.2°
Sets 19:12:26 0° 142° (SE) 2,323 -0.3 -8.6°
Enters shadow 19:12:26 - 142° (SE) 2,324 -0.3 -8.6°
